Home   Weather   Jamestown   Past weeks

Flag for Saint Helena Past Weather in Jamestown, Saint Helena — Yesterday and Last 2 Weeks

Now
66 °F

Mild.


Feels Like: 66 °F
Forecast: N/A
Wind: 14 mph from Southeast

Location: Saint Helena Island

Current Time: Jan 16, 2017 at 9:57:44 pm

Latest Report: Jan 16, 2017 at 9:00 pm


Visibility: N/A

Pressure: 29.95 "Hg

Humidity: 91%

Dew Point: 64 °F

Location of JamestownLocation

Past Weather in Jamestown — Graph

°F

Jamestown Temperature Yesterday

Maximum temperature yesterday: 74 °F (at 1:00 pm)
Minimum temperature yesterday: 65 °F (at 5:00 am)
Average temperature yesterday: 68 °F

High & Low Weather Summary for the Past Weeks

 TemperatureHumidityPressure
High74 °F (Jan 15, 1:00 pm)100% (Jan 3, 7:00 pm)30.08 "Hg (Jan 3, 7:00 pm)
Low64 °F (Jan 3, 4:00 am)54% (Jan 6, 1:00 pm)29.89 "Hg (Jan 10, 5:00 pm)
Average67 °F85%29.98 "Hg
* Reported Jan 1 8:00 pm — Jan 16 8:00 pm, Jamestown, Weather by CustomWeather, © 2017

Note: Actual official high and low records may vary slightly from our data, if they occured in-between our weather recording intervals... More about our weather records

Advertising

Jamestown Weather History for the Previous 24 Hours

Scroll right to see more
 ConditionsComfort  
Time TempWeatherWind HumidityBarometerVisibility
8:00 pm
Mon, Jan 16
67 °FMild.13 mph92%29.94 "HgN/A
7:00 pm67 °FMild.12 mph90%29.93 "HgN/A
6:00 pm68 °FMild.10 mph84%29.91 "HgN/A
5:00 pm69 °FMild.13 mph84%29.90 "HgN/A
4:00 pm69 °FMild.14 mph82%29.90 "HgN/A
3:00 pm72 °FLow clouds.12 mph76%29.91 "Hg28 mi
2:00 pm69 °FLow clouds.14 mph79%29.93 "Hg31 mi
1:00 pm70 °FMild.16 mph81%29.95 "HgN/A
11:00 am69 °FMild.12 mph81%29.98 "HgN/A
10:00 am67 °FFog.14 mph92%29.99 "Hg1 mi
9:00 am70 °FOvercast.15 mph79%29.99 "Hg31 mi
8:00 am67 °FMild.17 mph83%29.98 "HgN/A
7:00 am66 °FMild.15 mph90%29.98 "HgN/A
5:00 am65 °FMild.12 mph91%29.93 "HgN/A
4:00 am65 °FMild.15 mph98%29.92 "HgN/A
3:00 am65 °FMild.12 mph86%29.93 "HgN/A
2:00 am66 °FMild.13 mph98%29.94 "HgN/A
11:00 pm
Sun, Jan 15
66 °FMild.15 mph92%29.98 "HgN/A
10:00 pm66 °FMild.14 mph94%29.98 "HgN/A
9:00 pm66 °FMild.14 mph92%29.97 "HgN/A
Weather by CustomWeather, © 2017

See weather overviewHow to use our weather pages